| time (UTC) | temp C | wind direction | speed KPH | gust KPH | rain 1hr cm | rain 24hr cm | rain mn cm | humidity % | barometer mb |
| 20260507080004 | 2 | 182 | 0.0 | 0.0 | 0.00 | 0.00 | 0.00 | 99 | 1003.9 |
| 20260507075003 | 2 | 182 | 0.0 | 0.0 | 0.00 | 0.00 | 0.00 | 99 | 1004.1 |
| 20260507074024 | 2 | 182 | 0.0 | 0.0 | 0.00 | 0.00 | 0.00 | 99 | 1004.2 |
| 20260507073007 | 2 | 182 | 0.0 | 0.0 | 0.00 | 0.00 | 0.00 | 99 | 1004.2 |
| 20260507072028 | 2 | 182 | 0.0 | 0.0 | 0.00 | 0.00 | 0.00 | 99 | 1004.3 |
| 20260507071045 | 2 | 182 | 0.0 | 0.0 | 0.00 | 0.00 | 0.00 | 99 | 1004.0 |
| 20260507070027 | 3 | 182 | 0.0 | 0.0 | 0.00 | 0.00 | 0.00 | 99 | 1004.4 |
| 20260507065041 | 3 | 182 | 0.0 | 0.0 | 0.00 | 0.00 | 0.00 | 99 | 1004.0 |
| 20260507064034 | 3 | 182 | 0.0 | 0.0 | 0.00 | 0.00 | 0.00 | 99 | 1003.9 |
| 20260507061031 | 3 | 182 | 0.0 | 0.0 | 0.00 | 0.00 | 0.00 | 98 | 1004.1 |
| 20260507060005 | 3 | 182 | 0.0 | 0.0 | 0.00 | 0.00 | 0.00 | 98 | 1004.2 |
| 20260507055026 | 4 | 182 | 0.0 | 0.0 | 0.00 | 0.00 | 0.00 | 98 | 1004.4 |
| 20260507053044 | 4 | 181 | 0.0 | 0.0 | 0.00 | 0.00 | 0.00 | 99 | 1004.3 |
| 20260507051015 | 4 | 182 | 0.0 | 0.0 | 0.00 | 0.00 | 0.00 | 99 | 1004.5 |
| 20260507050035 | 4 | 177 | 0.0 | 0.0 | 0.00 | 0.00 | 0.00 | 99 | 1004.7 |
| 20260507044039 | 4 | 193 | 0.0 | 0.0 | 0.00 | 0.00 | 0.00 | 99 | 1004.4 |
| 20260507042006 | 5 | 182 | 0.0 | 0.0 | 0.00 | 0.00 | 0.00 | 99 | 1004.4 |
| 20260507041004 | 5 | 176 | 0.0 | 0.0 | 0.00 | 0.00 | 0.00 | 99 | 1004.4 |
| 20260507035042 | 5 | 180 | 0.0 | 0.0 | 0.00 | 0.00 | 2.36 | 99 | 1004.2 |
| 20260507034036 | 5 | 199 | 1.6 | 3.2 | 0.00 | 0.00 | 2.36 | 99 | 1004.2 |
| 20260507033002 | 5 | 183 | 1.6 | 3.2 | 0.00 | 0.00 | 2.36 | 99 | 1004.1 |
| 20260507032034 | 5 | 196 | 0.0 | 0.0 | 0.00 | 0.00 | 2.36 | 99 | 1004.1 |
| 20260507031042 | 5 | 204 | 0.0 | 0.0 | 0.00 | 0.00 | 2.36 | 99 | 1004.1 |
| 20260507030013 | 5 | 204 | 0.0 | 0.0 | 0.00 | 0.00 | 2.36 | 99 | 1003.9 |
| 20260507025041 | 5 | 184 | 0.0 | 0.0 | 0.00 | 0.00 | 2.36 | 99 | 1003.9 |
| 20260507024019 | 5 | 173 | 0.0 | 0.0 | 0.00 | 0.00 | 2.36 | 99 | 1003.9 |
| 20260507023033 | 5 | 183 | 0.0 | 0.0 | 0.00 | 0.00 | 2.36 | 99 | 1003.9 |
| 20260507022019 | 5 | 179 | 0.0 | 0.0 | 0.00 | 0.00 | 2.36 | 99 | 1004.0 |
| 20260507021017 | 5 | 177 | 0.0 | 0.0 | 0.00 | 0.00 | 2.36 | 99 | 1003.8 |
| 20260507015019 | 5 | 185 | 0.0 | 0.0 | 0.00 | 0.00 | 2.36 | 99 | 1004.0 |
| 20260507014027 | 5 | 182 | 0.0 | 0.0 | 0.00 | 0.00 | 2.36 | 99 | 1003.8 |
| 20260507013020 | 5 | 187 | 0.0 | 0.0 | 0.00 | 0.00 | 2.36 | 99 | 1003.8 |
| 20260507010039 | 6 | 194 | 1.6 | 3.2 | 0.00 | 0.00 | 2.36 | 99 | 1003.6 |
| 20260507005011 | 6 | 168 | 0.0 | 0.0 | 0.00 | 0.00 | 2.36 | 99 | 1003.3 |
| 20260507004036 | 5 | 189 | 0.0 | 0.0 | 0.00 | 0.00 | 2.36 | 99 | 1003.2 |
| 20260507003015 | 6 | 318 | 1.6 | 3.2 | 0.18 | 0.00 | 2.36 | 99 | 1003.2 |
| 20260507002026 | 6 | 284 | 3.2 | 4.8 | 0.61 | 0.00 | 2.34 | 98 | 1003.0 |
| 20260507001027 | 7 | 222 | 1.6 | 4.8 | 0.00 | 0.00 | 2.24 | 98 | 1002.5 |
| 20260506235024 | 7 | 184 | 0.0 | 0.0 | 0.30 | 0.00 | 2.21 | 97 | 1002.7 |
| 20260506234013 | 8 | 157 | 0.0 | 0.0 | 0.00 | 0.00 | 2.16 | 95 | 1002.2 |
| 20260506233038 | 8 | 156 | 0.0 | 0.0 | 0.00 | 0.00 | 2.16 | 93 | 1002.0 |
| 20260506232013 | 8 | 144 | 0.0 | 0.0 | 0.00 | 0.00 | 2.16 | 90 | 1001.8 |
| 20260506231005 | 8 | 149 | 0.0 | 0.0 | 0.00 | 0.00 | 2.16 | 91 | 1001.7 |
| 20260506230013 | 8 | 150 | 0.0 | 0.0 | 0.00 | 0.00 | 2.16 | 89 | 1001.6 |
| 20260506225021 | 8 | 145 | 0.0 | 0.0 | 0.00 | 0.00 | 2.16 | 90 | 1001.8 |
| 20260506224008 | 8 | 168 | 0.0 | 0.0 | 0.13 | 0.00 | 2.16 | 89 | 1001.4 |
| 20260506223003 | 8 | 125 | 3.2 | 3.2 | 0.00 | 0.00 | 2.13 | 90 | 1001.6 |
| 20260506222039 | 8 | 152 | 0.0 | 0.0 | 0.00 | 0.00 | 2.13 | 89 | 1001.5 |
| 20260506220029 | 8 | 172 | 0.0 | 0.0 | 0.00 | 0.00 | 2.13 | 89 | 1001.4 |
| 20260506215035 | 8 | 153 | 0.0 | 0.0 | 0.00 | 0.00 | 2.13 | 91 | 1001.3 |
| 20260506212016 | 8 | 140 | 0.0 | 0.0 | 0.00 | 0.00 | 2.13 | 88 | 1001.5 |
| 20260506211017 | 8 | 259 | 1.6 | 3.2 | 0.00 | 0.00 | 2.13 | 88 | 1001.8 |
| 20260506205014 | 8 | 173 | 0.0 | 0.0 | 0.00 | 0.00 | 2.13 | 86 | 1001.3 |
| 20260506204010 | 8 | 171 | 0.0 | 0.0 | 0.00 | 0.00 | 2.13 | 88 | 1001.3 |
| 20260506203046 | 8 | 180 | 0.0 | 0.0 | 0.00 | 0.00 | 2.13 | 88 | 1001.3 |
| 20260506202023 | 8 | 184 | 0.0 | 0.0 | 0.00 | 0.00 | 2.13 | 90 | 1001.2 |
| 20260506201011 | 8 | 227 | 0.0 | 0.0 | 0.00 | 0.00 | 2.13 | 90 | 1001.6 |
| 20260506195012 | 8 | 183 | 0.0 | 0.0 | 0.00 | 0.00 | 2.13 | 91 | 1001.5 |
| 20260506194043 | 8 | 182 | 1.6 | 3.2 | 0.00 | 0.00 | 2.13 | 90 | 1001.5 |
| 20260506192022 | 7 | 314 | 3.2 | 4.8 | 0.00 | 0.00 | 2.13 | 92 | 1001.3 |
| 20260506191014 | 7 | 194 | 1.6 | 3.2 | 0.00 | 0.00 | 2.13 | 95 | 1001.6 |
| 20260506190040 | 7 | 122 | 1.6 | 3.2 | 0.00 | 0.00 | 2.13 | 97 | 1001.6 |
| 20260506185040 | 7 | 163 | 0.0 | 0.0 | 0.00 | 0.00 | 2.13 | 99 | 1001.8 |
| 20260506183016 | 6 | 158 | 1.6 | 3.2 | 0.00 | 0.00 | 2.13 | 99 | 1001.5 |
| 20260506182012 | 7 | 176 | 0.0 | 0.0 | 0.00 | 0.00 | 2.13 | 99 | 1001.5 |
| 20260506181003 | 6 | 205 | 1.6 | 3.2 | 0.00 | 0.00 | 2.13 | 99 | 1001.7 |
| 20260506180033 | 6 | 184 | 0.0 | 0.0 | 0.00 | 0.00 | 2.13 | 99 | 1001.6 |
| 20260506175015 | 6 | 184 | 0.0 | 0.0 | 0.00 | 0.00 | 2.13 | 99 | 1001.5 |
| 20260506174031 | 7 | 204 | 1.6 | 3.2 | 0.00 | 0.00 | 2.13 | 99 | 1001.2 |
| 20260506173032 | 7 | 158 | 0.0 | 0.0 | 0.00 | 0.00 | 2.13 | 99 | 1001.2 |
| 20260506172029 | 7 | 187 | 0.0 | 0.0 | 0.00 | 0.00 | 2.13 | 99 | 1001.0 |
| 20260506171004 | 7 | 184 | 1.6 | 3.2 | 0.00 | 0.00 | 2.13 | 99 | 1000.7 |
| 20260506170003 | 7 | 168 | 1.6 | 3.2 | 0.00 | 0.00 | 2.13 | 99 | 1000.9 |
| 20260506165008 | 6 | 153 | 1.6 | 3.2 | 0.00 | 0.00 | 2.13 | 99 | 1001.0 |
| 20260506164020 | 6 | 144 | 1.6 | 3.2 | 0.00 | 0.00 | 2.13 | 99 | 1001.2 |
| 20260506163034 | 7 | 158 | 1.6 | 3.2 | 0.00 | 0.00 | 2.13 | 99 | 1000.8 |
| 20260506155015 | 6 | 179 | 1.6 | 3.2 | 0.00 | 0.00 | 2.13 | 99 | 1000.9 |
| 20260506153024 | 7 | 189 | 1.6 | 3.2 | 0.00 | 0.00 | 2.13 | 99 | 1000.6 |
| 20260506152013 | 7 | 162 | 0.0 | 0.0 | 0.00 | 0.00 | 2.13 | 99 | 1000.6 |
| 20260506151044 | 7 | 169 | 0.0 | 0.0 | 0.00 | 0.00 | 2.13 | 99 | 1000.6 |
| 20260506150032 | 6 | 180 | 0.0 | 0.0 | 0.18 | 0.00 | 2.13 | 99 | 1000.6 |
| 20260506145038 | 6 | 197 | 1.6 | 3.2 | 0.00 | 0.00 | 2.11 | 99 | 1000.5 |
| 20260506144034 | 6 | 193 | 1.6 | 3.2 | 0.00 | 0.00 | 2.11 | 99 | 1000.4 |
| 20260506143034 | 6 | 171 | 0.0 | 0.0 | 0.00 | 0.00 | 2.11 | 99 | 1000.3 |
| 20260506141011 | 6 | 157 | 3.2 | 4.8 | 0.00 | 0.00 | 2.08 | 99 | 1000.1 |
| 20260506135025 | 6 | 108 | 3.2 | 3.2 | 0.18 | 0.00 | 2.08 | 99 | 1000.4 |
| 20260506134002 | 6 | 150 | 1.6 | 3.2 | 0.00 | 0.00 | 2.06 | 99 | 1000.2 |
| 20260506133007 | 6 | 160 | 0.0 | 0.0 | 0.13 | 0.00 | 2.06 | 99 | 1000.3 |
| 20260506131014 | 5 | 166 | 0.0 | 0.0 | 0.00 | 0.00 | 2.03 | 99 | 999.9 |
| 20260506130005 | 5 | 139 | 3.2 | 4.8 | 0.00 | 0.00 | 2.03 | 99 | 1000.1 |
| 20260506125004 | 5 | 153 | 0.0 | 0.0 | 0.18 | 0.00 | 2.03 | 99 | 1000.2 |
| 20260506124017 | 5 | 158 | 0.0 | 0.0 | 0.00 | 0.00 | 2.01 | 99 | 1000.3 |
| 20260506123043 | 5 | 147 | 4.8 | 6.4 | 0.00 | 0.00 | 2.01 | 99 | 1000.1 |
| 20260506122020 | 5 | 154 | 0.0 | 0.0 | 0.13 | 0.00 | 2.01 | 99 | 1000.3 |
| 20260506121010 | 5 | 139 | 1.6 | 3.2 | 0.18 | 0.00 | 1.98 | 99 | 1000.4 |
| 20260506120039 | 5 | 116 | 1.6 | 3.2 | 0.18 | 0.00 | 1.96 | 99 | 1000.4 |
| 20260506115030 | 5 | 155 | 0.0 | 0.0 | 0.00 | 0.00 | 1.93 | 99 | 1000.4 |
| 20260506114023 | 5 | 216 | 3.2 | 4.8 | 0.00 | 0.00 | 1.93 | 99 | 1000.3 |
| 20260506113031 | 5 | 157 | 1.6 | 3.2 | 0.13 | 0.00 | 1.93 | 99 | 999.9 |
| 20260506112037 | 5 | 157 | 0.0 | 0.0 | 0.00 | 0.00 | 1.91 | 99 | 999.9 |
| 20260506111045 | 5 | 109 | 4.8 | 9.7 | 0.18 | 0.00 | 1.91 | 99 | 1000.3 |
| 20260506110043 | 6 | 137 | 3.2 | 6.4 | 0.13 | 0.00 | 1.88 | 99 | 1000.0 |
| 20260506105032 | 6 | 256 | 3.2 | 4.8 | 0.00 | 0.00 | 1.85 | 99 | 1000.2 |
| 20260506102045 | 6 | 142 | 3.2 | 3.2 | 0.30 | 0.00 | 1.80 | 99 | 1000.6 |
| 20260506101024 | 6 | 166 | 0.0 | 0.0 | 0.18 | 0.00 | 1.75 | 99 | 1000.7 |
| 20260506100027 | 6 | 227 | 1.6 | 3.2 | 0.30 | 0.00 | 1.73 | 99 | 1000.5 |
| 20260506095028 | 6 | 153 | 3.2 | 3.2 | 0.30 | 0.00 | 1.68 | 99 | 1000.5 |
| 20260506093002 | 6 | 179 | 0.0 | 0.0 | 0.30 | 0.00 | 1.60 | 99 | 1000.4 |
| 20260506092005 | 6 | 163 | 0.0 | 0.0 | 0.00 | 0.00 | 1.55 | 99 | 1000.3 |
| 20260506090040 | 6 | 183 | 0.0 | 0.0 | 0.18 | 0.00 | 1.52 | 99 | 1000.0 |
| 20260506085008 | 6 | 133 | 4.8 | 6.4 | 0.13 | 0.00 | 1.50 | 99 | 1000.1 |
| 20260506084009 | 6 | 353 | 4.8 | 6.4 | 0.30 | 0.00 | 1.47 | 99 | 1000.4 |
| 20260506083030 | 6 | 195 | 0.0 | 0.0 | 0.18 | 0.00 | 1.42 | 99 | 1000.2 |
| 20260506082015 | 6 | 152 | 3.2 | 4.8 | 0.30 | 0.00 | 1.40 | 99 | 1000.0 |
| 20260506081030 | 6 | 90 | 6.4 | 8.0 | 0.48 | 0.00 | 1.35 | 99 | 1000.4 |